Location: Ripley
(48.3812°N, 115.4473°W)
Time: 06:36:20
(UTC+00:00)

NOAA 19 - Visible Passes

Search period start: 28 June 2022 00:00
Search period end: 08 July 2022 00:00
Orbit: 840 x 861 km, 99.1° (Epoch: 27 June)

Date Brightness Start Highest point End Pass type
(mag) Time Alt. Az. Time Alt. Az. Time Alt. Az.
28 Jun 8.0 04:39:41 10° WSW 04:41:42 12° W 04:43:43 10° WNW visible
29 Jun 7.8 04:26:29 10° WSW 04:29:38 15° W 04:32:47 10° NW visible
06 Jul 8.1 04:46:13 10° W 04:47:25 11° W 04:48:37 10° WNW visible
07 Jul 7.9 04:32:35 10° WSW 04:35:19 14° W 04:38:05 10° WNW visible
